• In Netherlands
  • List of Countries
  • For 7 days
  • Water Temperature
  • Satellite Maps
  • Weather Map
  • Weather Widgets
  • user-avatar
    Login

    Hourly Weather Vanadzor

    Today, 24 May, Thursday

    Time Temperature Precipitation Wind Pressure Humidity
    00:00 +10°C° 0.1 mm 2 mps 637 mmHg 78%
    01:00 +9°C° 0 mm 2 mps 637 mmHg 76%
    02:00 +9°C° 0 mm 2 mps 637 mmHg 75%
    03:00 +9°C° 0 mm 2 mps 637 mmHg 75%
    04:00 +10°C° 0 mm 2 mps 637 mmHg 74%
    05:00 +10°C° 0 mm 2 mps 637 mmHg 74%
    06:00 +10°C° 0 mm 2 mps 637 mmHg 73%
    07:00 +13°C° 0 mm 2 mps 637 mmHg 66%
    08:00 +15°C° 0 mm 2 mps 638 mmHg 59%
    09:00 +17°C° 0 mm 2 mps 638 mmHg 53%
    10:00 +18°C° 0.1 mm 2 mps 638 mmHg 52%
    11:00 +19°C° 0.1 mm 3 mps 638 mmHg 51%
    12:00 +20°C° 0.1 mm 3 mps 638 mmHg 50%
    13:00 +20°C° 0.2 mm 3 mps 637 mmHg 52%
    14:00 +20°C° 0.2 mm 3 mps 637 mmHg 53%
    15:00 +19°C° 0 mm 4 mps 637 mmHg 52%
    16:00 +18°C° 0.1 mm 3 mps 636 mmHg 56%
    17:00 +17°C° 0.1 mm 2 mps 636 mmHg 60%
    18:00 +17°C° 0.1 mm 2 mps 636 mmHg 64%
    19:00 +15°C° 0 mm 2 mps 636 mmHg 65%
    20:00 +13°C° 0 mm 2 mps 635 mmHg 66%
    21:00 +12°C° 0 mm 2 mps 635 mmHg 68%
    22:00 +10°C° 0 mm 2 mps 635 mmHg 66%
    23:00 +10°C° 0 mm 2 mps 634 mmHg 64%

    Tomorrow, 25 May, Friday

    Time Temperature Precipitation Wind Pressure Humidity
    00:00 +10°C° 0 mm 1 mps 634 mmHg 62%
    01:00 +10°C° 0 mm 1 mps 634 mmHg 61%
    02:00 +10°C° 0 mm 1 mps 633 mmHg 59%
    03:00 +10°C° 0 mm 1 mps 633 mmHg 58%
    04:00 +10°C° 0.1 mm 1 mps 634 mmHg 60%
    05:00 +11°C° 0.1 mm 1 mps 634 mmHg 63%
    06:00 +12°C° 0.1 mm 1 mps 634 mmHg 65%
    07:00 +14°C° 0.1 mm 1 mps 634 mmHg 62%
    08:00 +16°C° 0.1 mm 1 mps 635 mmHg 58%
    09:00 +19°C° 0.1 mm 1 mps 635 mmHg 55%
    10:00 +19°C° 0.2 mm 2 mps 635 mmHg 54%
    11:00 +19°C° 0.2 mm 2 mps 635 mmHg 54%
    12:00 +20°C° 0.2 mm 2 mps 635 mmHg 53%
    13:00 +21°C° 0.5 mm 2 mps 635 mmHg 54%
    14:00 +21°C° 0.5 mm 2 mps 635 mmHg 54%
    15:00 +21°C° 0.5 mm 2 mps 634 mmHg 55%
    16:00 +20°C° 0.4 mm 2 mps 634 mmHg 60%
    17:00 +19°C° 0.4 mm 2 mps 634 mmHg 64%
    18:00 +20°C° 0.4 mm 1 mps 634 mmHg 69%
    19:00 +18°C° 0.5 mm 1 mps 634 mmHg 72%
    20:00 +15°C° 0.5 mm 1 mps 634 mmHg 75%
    21:00 +13°C° 0.5 mm 1 mps 634 mmHg 78%
    22:00 +13°C° 0.2 mm 1 mps 634 mmHg 78%
    23:00 +13°C° 0.2 mm 1 mps 634 mmHg 79%

    Day after tomorrow, 26 May, Saturday

    Time Temperature Precipitation Wind Pressure Humidity
    00:00 +13°C° 0.2 mm 1 mps 634 mmHg 79%
    01:00 +13°C° 0.2 mm 1 mps 634 mmHg 80%
    02:00 +12°C° 0.2 mm 1 mps 634 mmHg 80%
    03:00 +12°C° 0.2 mm 1 mps 633 mmHg 81%
    04:00 +13°C° 0.1 mm 1 mps 634 mmHg 81%
    05:00 +13°C° 0.1 mm 1 mps 634 mmHg 81%
    06:00 +14°C° 0.1 mm 1 mps 634 mmHg 80%
    07:00 +15°C° 0.1 mm 1 mps 635 mmHg 75%
    08:00 +17°C° 0.1 mm 2 mps 635 mmHg 69%
    09:00 +19°C° 0.1 mm 2 mps 636 mmHg 63%
    10:00 +20°C° 0.1 mm 2 mps 636 mmHg 60%
    11:00 +21°C° 0.1 mm 2 mps 636 mmHg 57%
    12:00 +23°C° 0.1 mm 2 mps 636 mmHg 54%
    13:00 +23°C° 0.5 mm 2 mps 636 mmHg 53%
    14:00 +24°C° 0.5 mm 2 mps 636 mmHg 52%
    15:00 +24°C° 0.5 mm 2 mps 636 mmHg 51%
    16:00 +23°C° 0.6 mm 2 mps 636 mmHg 57%
    17:00 +22°C° 0.6 mm 1 mps 636 mmHg 62%
    18:00 +22°C° 0.6 mm 1 mps 636 mmHg 68%
    19:00 +20°C° 1.2 mm 1 mps 636 mmHg 71%
    20:00 +18°C° 1.2 mm 1 mps 636 mmHg 75%
    21:00 +15°C° 1.2 mm 1 mps 636 mmHg 79%
    22:00 +15°C° 1.2 mm 1 mps 636 mmHg 81%
    23:00 +15°C° 1.2 mm 1 mps 636 mmHg 82%

    27 May, Sunday

    Time Temperature Precipitation Wind Pressure Humidity
    00:00 +14°C° 1.2 mm 1 mps 636 mmHg 84%
    01:00 +14°C° 0.6 mm 1 mps 636 mmHg 85%
    02:00 +14°C° 0.6 mm 1 mps 636 mmHg 86%
    03:00 +13°C° 0.6 mm 1 mps 636 mmHg 88%
    04:00 +14°C° 0.1 mm 1 mps 637 mmHg 86%
    05:00 +13°C° 0.1 mm 0 mps 637 mmHg 85%
    06:00 +14°C° 0.1 mm 0 mps 638 mmHg 83%
    07:00 +16°C° 0 mm 1 mps 638 mmHg 78%
    08:00 +19°C° 0 mm 1 mps 639 mmHg 73%
    09:00 +19°C° 0 mm 2 mps 639 mmHg 68%
    10:00 +20°C° 0 mm 2 mps 639 mmHg 66%
    11:00 +20°C° 0 mm 2 mps 639 mmHg 65%
    12:00 +21°C° 0 mm 2 mps 639 mmHg 63%
    13:00 +21°C° 0.4 mm 2 mps 639 mmHg 64%
    14:00 +21°C° 0.4 mm 2 mps 639 mmHg 65%
    15:00 +21°C° 0.4 mm 2 mps 639 mmHg 66%
    16:00 +20°C° 0.4 mm 2 mps 639 mmHg 71%
    17:00 +19°C° 0.4 mm 2 mps 639 mmHg 76%
    18:00 +18°C° 0.4 mm 2 mps 639 mmHg 81%
    19:00 +17°C° 0.4 mm 2 mps 639 mmHg 85%
    20:00 +16°C° 0.4 mm 2 mps 639 mmHg 90%
    21:00 +14°C° 0.4 mm 2 mps 640 mmHg 94%
    22:00 +14°C° 0.2 mm 2 mps 640 mmHg 94%
    23:00 +13°C° 0.2 mm 2 mps 640 mmHg 95%

    28 May, Monday

    Time Temperature Precipitation Wind Pressure Humidity
    00:00 +13°C° 0.2 mm 2 mps 640 mmHg 96%
    01:00 +13°C° 0.1 mm 2 mps 640 mmHg 96%
    02:00 +12°C° 0.1 mm 2 mps 639 mmHg 96%
    03:00 +12°C° 0.1 mm 1 mps 639 mmHg 95%
    04:00 +12°C° 0 mm 1 mps 639 mmHg 94%
    05:00 +13°C° 0 mm 1 mps 639 mmHg 93%
    06:00 +13°C° 0 mm 1 mps 639 mmHg 92%
    07:00 +15°C° 0 mm 1 mps 639 mmHg 83%
    08:00 +18°C° 0 mm 1 mps 640 mmHg 74%
    09:00 +20°C° 0 mm 1 mps 640 mmHg 64%
    10:00 +21°C° 0.1 mm 1 mps 640 mmHg 61%
    11:00 +23°C° 0.1 mm 2 mps 640 mmHg 58%
    12:00 +24°C° 0.1 mm 2 mps 640 mmHg 54%
    13:00 +24°C° 0.1 mm 2 mps 639 mmHg 54%
    14:00 +24°C° 0.1 mm 2 mps 639 mmHg 54%
    15:00 +24°C° 0.1 mm 2 mps 639 mmHg 54%
    16:00 +24°C° 0.4 mm 2 mps 638 mmHg 60%
    17:00 +23°C° 0.4 mm 1 mps 638 mmHg 66%
    18:00 +22°C° 0.4 mm 1 mps 638 mmHg 72%
    19:00 +20°C° 0.3 mm 1 mps 638 mmHg 76%
    20:00 +18°C° 0.3 mm 1 mps 637 mmHg 81%
    21:00 +15°C° 0.3 mm 1 mps 637 mmHg 85%
    22:00 +15°C° 0.3 mm 1 mps 637 mmHg 85%
    23:00 +15°C° 0.3 mm 1 mps 637 mmHg 85%

    29 May, Tuesday

    Time Temperature Precipitation Wind Pressure Humidity
    00:00 +15°C° 0.3 mm 1 mps 637 mmHg 84%
    01:00 +14°C° 0.1 mm 1 mps 637 mmHg 86%
    02:00 +14°C° 0.1 mm 1 mps 636 mmHg 87%
    03:00 +13°C° 0.1 mm 1 mps 636 mmHg 89%
    04:00 +13°C° 0 mm 1 mps 636 mmHg 87%
    05:00 +14°C° 0 mm 1 mps 637 mmHg 86%
    06:00 +14°C° 0 mm 1 mps 637 mmHg 85%
    07:00 +16°C° 0.1 mm 1 mps 637 mmHg 78%
    08:00 +18°C° 0.1 mm 2 mps 638 mmHg 71%
    09:00 +19°C° 0.1 mm 2 mps 638 mmHg 65%
    10:00 +20°C° 0.1 mm 2 mps 638 mmHg 63%
    11:00 +21°C° 0.1 mm 2 mps 638 mmHg 62%
    12:00 +21°C° 0.1 mm 3 mps 638 mmHg 60%
    13:00 +21°C° 0.3 mm 3 mps 637 mmHg 61%
    14:00 +22°C° 0.3 mm 3 mps 637 mmHg 62%
    15:00 +22°C° 0.3 mm 3 mps 637 mmHg 63%
    16:00 +20°C° 0.4 mm 3 mps 637 mmHg 68%
    17:00 +19°C° 0.4 mm 3 mps 636 mmHg 73%
    18:00 +18°C° 0.4 mm 3 mps 636 mmHg 77%
    19:00 +17°C° 0.3 mm 3 mps 636 mmHg 80%
    20:00 +15°C° 0.3 mm 2 mps 636 mmHg 83%
    21:00 +13°C° 0.3 mm 2 mps 636 mmHg 87%
    22:00 +13°C° 0.3 mm 2 mps 636 mmHg 88%
    23:00 +13°C° 0.3 mm 2 mps 636 mmHg 89%
    Show more